FALCON 9 DEB (45238 NORAD) Tracking and Keplerian Element Data

This shows tracking and keplerian element data for the satellite.

Feedback or suggestion? Click here.




ElementValue
Catalog45238
NameFALCON 9 DEB
Epoch Orbit620
Epoch Day85.19768106
Epoch Year2020
RAAN79.543
Inclination52.9921
Eccentricity0.0012613
Argument of Perigee178.3877
Mean Anonmoly181.7214
Mean Motion16.46129179
Decay Rate0.0973319
L11 45238U 20012BN 20085.19768106 .09733190 12324-4 19104-3 0 9996
L22 45238 52.9921 79.5430 0012613 178.3877 181.7214 16.46129179 6202

Live tracking and technical data element details for FALCON 9 DEB (NORAD 45238). FALCON 9 DEB can be tracked NOW for your location showing map with azimuth and elevation plus other details from your city location.

Track the satellite on the map from your city or location and see movement details for azimuth, elevation, latitude, longitude, range, height, and movement on the map or in text.







IsCatalogInMostPopularTable: catalog: 45238, numindb: 7
Update: records affected: 1



GetName: 45238 FALCON 9 DEB

Hit Count: updated at: Tue, 07 Apr 2020 17:23:09 GMT